{"data":{"norad_id":67930,"epoch":"2026-05-25T02:44:47.158944Z","epoch_age_seconds":61789,"freshness":"FRESH","line1":"1 67930U 26036AC  26145.11443471  .00024403  00000+0  89328-3 0  9990","line2":"2 67930  42.9997 173.3521 0001177 263.9055  96.1663 15.27583243 15417","mean_motion":15.27583243,"eccentricity":0.0001177,"inclination_deg":42.9997,"raan_deg":173.3521,"arg_perigee_deg":263.9055,"mean_anomaly_deg":96.1663,"bstar":0.00089328,"rev_number":1541,"period_min":94.266548588999,"perigee_km":482.23182488761,"apogee_km":483.84694580873,"semimajor_km":6861.1763853482,"source":"CELESTRAK","updated_at":"2026-05-25T13:38:21.765523Z"}}